Date String (YYYY-MM-DD hh:mm:ss) UTC,Instrument flags,Ambient pressure (hPa),Sample flow (lpm),Bypass flow (lpm),Sample temperature (°C),Ambient temperature (°C),ASC tube jacket temperature (°C),LED temperature (°C),Box temperature (°C),Sample RH (%),Span deviation,Mass concentration (μg/m³),Mass concentration (μg/m³),Mass concentration (μg/m³)
DateTimeUTC,F1_M11,P_M11,Q1_M11,Q2_M11,T1_M11,T2_M11,T3_M11,T4_M11,T5_M11,U1_M11,ZSPAN_M11,X0_M11,X2_M11,X1_M11
2022-09-26 10:00:00,,0832.6,5.01,0.00,29.7,28.1,00.0,38.5,31.6,15.0,0000.0,0010.14,0006.10,0005.57
2022-09-26 10:01:00,,0832.7,4.99,0.00,29.8,28.1,00.0,38.5,31.6,15.0,0000.0,0010.35,0006.14,0005.59
2022-09-26 10:02:00,,0832.6,5.01,0.00,29.8,28.1,00.0,38.5,31.6,15.1,0000.0,0010.83,0006.17,0005.60
2022-09-26 10:03:00,,0832.7,4.99,0.00,29.7,28.1,00.0,38.5,31.6,15.3,0000.0,0010.86,0006.20,0005.63
2022-09-26 10:04:00,,0832.6,5.01,0.00,29.7,28.1,00.0,38.5,31.5,15.2,0000.0,0011.46,0006.26,0005.65
2022-09-26 10:05:00,,0832.6,5.00,0.00,29.7,28.0,00.0,38.5,31.5,15.6,0000.0,0011.88,0006.32,0005.68
2022-09-26 10:06:00,,0832.7,4.99,0.00,29.7,28.1,00.0,38.5,31.5,15.6,0000.0,0011.52,0006.37,0005.73
2022-09-26 10:07:00,,0832.6,5.01,0.00,29.7,28.1,00.0,38.5,31.5,15.8,0000.0,0011.13,0006.43,0005.77
2022-09-26 10:08:00,,0832.7,4.99,0.00,29.7,28.1,00.0,38.5,31.5,15.7,0000.3,0011.20,0006.48,0005.79
2022-09-26 10:09:00,,0832.7,5.00,0.00,29.7,28.1,00.0,38.5,31.5,15.6,0000.0,0011.48,0006.50,0005.80
2022-09-26 10:10:00,,0832.7,5.01,0.00,29.7,28.1,00.0,38.5,31.5,15.7,0000.0,0011.68,0006.55,0005.84
2022-09-26 10:11:00,,0832.7,4.99,0.00,29.7,28.1,00.0,38.5,31.5,15.7,0000.8,0011.59,0006.56,0005.86
2022-09-26 10:12:00,,0832.8,5.00,0.00,29.7,28.0,00.0,38.5,31.5,15.9,0000.9,0011.59,0006.56,0005.88
2022-09-26 10:13:00,,0832.7,5.01,0.00,29.7,28.1,00.0,38.5,31.5,16.0,0000.5,0010.93,0006.53,0005.90
2022-09-26 10:14:00,,0832.8,5.00,0.00,29.7,28.1,00.0,38.5,31.6,16.7,0000.5,0010.91,0006.51,0005.92
2022-09-26 10:15:00,,0832.8,5.00,0.00,29.7,28.1,00.0,38.5,31.6,16.9,0000.0,0010.56,0006.51,0005.93
2022-09-26 10:16:00,,0832.8,4.99,0.00,29.7,28.2,00.0,38.5,31.6,16.8,0000.0,0010.37,0006.49,0005.94
2022-09-26 10:17:00,,0832.7,5.01,0.00,29.7,28.2,00.0,38.5,31.6,16.8,0000.0,0011.54,0006.49,0005.93
2022-09-26 10:18:00,,0832.7,4.99,0.00,29.7,28.2,00.0,38.5,31.6,16.6,0000.0,0012.30,0006.52,0005.93
2022-09-26 10:19:00,,0832.8,5.01,0.00,29.7,28.2,00.0,38.5,31.6,16.4,0000.0,0012.29,0006.52,0005.93
2022-09-26 10:20:00,,0832.8,4.98,0.00,29.7,28.2,00.0,38.5,31.6,16.3,0000.0,0012.16,0006.51,0005.95
2022-09-26 10:21:00,,0832.8,5.01,0.00,29.8,28.2,00.0,38.5,31.6,16.3,0000.0,0012.65,0006.56,0005.97
2022-09-26 10:22:00,,0832.8,4.99,0.00,29.8,28.2,00.0,38.5,31.6,16.4,0000.0,0012.97,0006.61,0006.00
2022-09-26 10:23:00,,0832.7,5.00,0.00,29.8,28.2,00.0,38.5,31.6,16.4,0000.0,0012.96,0006.65,0006.03
2022-09-26 10:24:00,,0832.7,5.00,0.00,29.8,28.2,00.0,38.5,31.6,16.4,0000.0,0013.09,0006.67,0006.05
2022-09-26 10:25:00,,0832.7,5.01,0.00,29.8,28.3,00.0,38.5,31.6,16.4,0000.0,0013.42,0006.71,0006.09
2022-09-26 10:26:00,,0832.7,4.99,0.00,29.8,28.3,00.0,38.5,31.6,16.4,0000.0,0013.55,0006.76,0006.13
2022-09-26 10:27:00,,0832.7,5.00,0.00,29.8,28.3,00.0,38.5,31.7,16.3,0000.0,0013.76,0006.83,0006.16
2022-09-26 10:28:00,,0832.7,4.99,0.00,29.8,28.3,00.0,38.5,31.7,16.2,0000.0,0014.14,0006.92,0006.18
2022-09-26 10:29:00,,0832.7,5.01,0.00,29.8,28.3,00.0,38.5,31.7,16.1,0000.0,0013.38,0006.91,0006.16
2022-09-26 10:30:00,,0832.7,4.99,0.00,29.8,28.3,00.0,38.5,31.7,15.9,0002.5,0013.67,0006.89,0006.15
2022-09-26 10:31:00,,0832.7,5.01,0.00,29.8,28.3,00.0,38.6,31.7,15.8,0002.3,0014.74,0006.87,0006.12
2022-09-26 10:32:00,,0832.7,5.00,0.00,29.8,28.3,00.0,38.5,31.7,15.9,0002.8,0014.53,0006.84,0006.09
2022-09-26 10:33:00,,0832.7,4.99,0.00,29.8,28.3,00.0,38.5,31.7,15.8,0002.3,0014.47,0006.82,0006.06
2022-09-26 10:34:00,,0832.7,5.01,0.00,29.8,28.3,00.0,38.6,31.7,16.1,0002.4,0014.46,0006.78,0006.03
2022-09-26 10:35:00,,0832.7,4.99,0.00,29.8,28.3,00.0,38.6,31.7,16.1,0001.2,0014.50,0006.83,0006.04
2022-09-26 10:36:00,,0832.7,5.00,0.00,29.8,28.3,00.0,38.6,31.7,16.0,0002.4,0014.30,0006.91,0006.04
2022-09-26 10:37:00,,0832.8,5.00,0.00,29.8,28.3,00.0,38.5,31.7,15.9,0002.1,0014.60,0006.92,0006.02
2022-09-26 10:38:00,,0832.8,5.01,0.00,29.8,28.3,00.0,38.6,31.7,15.9,0002.4,0015.38,0006.90,0005.99
2022-09-26 10:39:00,,0832.7,5.00,0.00,29.8,28.3,00.0,38.6,31.7,15.8,0002.3,0015.41,0006.83,0005.96
2022-09-26 10:40:00,,0832.7,5.00,0.00,29.8,28.3,00.0,38.6,31.7,15.8,0002.8,0016.00,0006.81,0005.96
2022-09-26 10:41:00,,0832.7,4.99,0.00,29.8,28.3,00.0,38.6,31.7,15.8,0002.9,0015.87,0006.86,0005.96
2022-09-26 10:42:00,,0832.7,5.01,0.00,29.8,28.3,00.0,38.6,31.7,15.8,0002.4,0014.92,0006.89,0005.96
2022-09-26 10:43:00,,0832.7,5.00,0.00,29.8,28.3,00.0,38.6,31.7,15.8,0002.3,0014.68,0006.88,0005.95
2022-09-26 10:44:00,,0832.7,5.01,0.00,29.8,28.3,00.0,38.6,31.7,15.9,0002.1,0015.32,0006.90,0005.96
2022-09-26 10:45:00,,0832.8,4.99,0.00,29.8,28.3,00.0,38.6,31.7,15.9,0002.4,0015.42,0006.93,0005.97
2022-09-26 10:46:00,,0832.8,5.01,0.00,29.8,28.3,00.0,38.6,31.7,15.7,0002.0,0015.32,0006.88,0005.93
2022-09-26 10:47:00,,0832.8,5.00,0.00,29.8,28.2,00.0,38.6,31.6,15.5,0000.0,0015.41,0006.78,0005.88
2022-09-26 10:48:00,,0832.8,5.00,0.00,29.8,28.2,00.0,38.6,31.7,15.4,0000.0,0015.14,0006.72,0005.83
2022-09-26 10:49:00,,0832.8,5.00,0.00,29.8,28.2,00.0,38.6,31.7,15.4,0000.0,0014.03,0006.66,0005.80
2022-09-26 10:50:00,,0832.8,4.99,0.00,29.8,28.2,00.0,38.6,31.7,15.4,0000.0,0012.92,0006.60,0005.78
2022-09-26 10:51:00,,0832.8,5.01,0.00,29.8,28.2,00.0,38.6,31.7,15.5,0000.0,0012.24,0006.61,0005.76
2022-09-26 10:52:00,,0832.8,5.01,0.00,29.8,28.2,00.0,38.6,31.7,15.4,0000.0,0012.29,0006.54,0005.75
2022-09-26 10:53:00,,0832.8,4.98,0.00,29.8,28.2,00.0,38.6,31.7,15.6,0000.0,0012.44,0006.51,0005.72
2022-09-26 10:54:00,,0832.7,5.01,0.00,29.8,28.2,00.0,38.6,31.7,15.4,0000.0,0012.31,0006.50,0005.70
2022-09-26 10:55:00,,0832.7,5.01,0.00,29.8,28.2,00.0,38.6,31.7,15.5,0000.5,0011.38,0006.43,0005.66
2022-09-26 10:56:00,,0832.8,4.99,0.00,29.8,28.2,00.0,38.6,31.7,15.5,0001.3,0011.95,0006.37,0005.64
2022-09-26 10:57:00,,0832.8,5.00,0.00,29.8,28.2,00.0,38.6,31.7,15.4,0001.2,0012.26,0006.38,0005.63
2022-09-26 10:58:00,,0832.7,5.00,0.00,29.8,28.2,00.0,38.6,31.7,15.4,0000.4,0012.27,0006.41,0005.64
2022-09-26 10:59:00,,0832.8,5.01,0.00,29.8,28.3,00.0,38.6,31.7,15.4,0000.0,0012.58,0006.44,0005.67
